Regional Weather Roundup
Issued by NWS Upton, NY

Current Version | Previous Version | Graphics & Text | Print | Product List | Glossary On
Versions: 1 2 3 4 5 6 7 8 9 10 11 12 13 14 15 16 17 18 19 20 21 22 23 24 25 26 27
000
ASUS41 KOKX 042208
RWROKX

REGIONAL WEATHER ROUNDUP
NATIONAL WEATHER SERVICE NEW YORK NY
500 PM EST SUN DEC 04 2016

NOTE: "FAIR" INDICATES FEW OR NO CLOUDS BELOW 12,000 FEET WITH NO
SIGNIFICANT WEATHER AND/OR OBSTRUCTIONS TO VISIBILITY.

NYZ071-072-176-178-NJZ106-104-042300-
NEW YORK CITY METRO AREA

CITY           SKY/WX    TMP DP  RH WIND       PRES   REMARKS
Central Park   CLEAR     43  19  38 NE3       30.21S
Wall St Helipt CLEAR     46  22  38 NE5       30.20R
Bronx Bot Gard NOT AVBL
LaGuardia APRT MOCLDY    45  23  42 NE9       30.19S
Kennedy INTL   MOCLDY    42  20  41 NE6       30.20S
Breezy Point     N/A     43 N/A N/A E3          N/A
Newark/Liberty CLOUDY    43  22  43 NE6       30.18S
Teterboro      CLEAR     45  18  34 NE5       30.18S
$$

NYZ177-179-078>081-042300-
LONG ISLAND NEW YORK

CITY           SKY/WX    TMP DP  RH WIND       PRES   REMARKS
Jones Beach      N/A     41 N/A N/A NE7         N/A
Matinecock PT    N/A     43 N/A N/A E10         N/A
Farmingdale    CLEAR     40  22  48 NE3       30.20S
MacArthur/ISP  MOCLDY    37  23  56 N6        30.19S WCI  32
Shirley        CLEAR     35  22  58 NW3       30.20S
Westhampton    CLEAR     30  22  72 CALM      30.21S
Southampton    NOT AVBL
Bridgehampton  NOT AVBL
East Hampton     N/A     32  20  63 CALM      30.19S
Montauk          N/A     40  22  48 N3        30.20R
$$

NYZ052-065-067-042300-
HUDSON VALLEY

CITY           SKY/WX    TMP DP  RH WIND       PRES   REMARKS
White Plains   CLEAR     38  20  48 NE5       30.17S WCI  34
Newburgh       CLEAR     36  23  60 E8        30.19S WCI  29
Montgomery     CLEAR     34  23  64 NE6       30.18R WCI  29
Poughkeepsie   CLEAR     32  21  64 NE6       30.20R WCI  26
Albany         PTCLDY    27  18  69 SW5       30.23S WCI  22
$$

NJZ001-105-106-008-010-013-015-019>022-104-042300-
NEW JERSEY

CITY           SKY/WX    TMP DP  RH WIND       PRES   REMARKS
Newark/Liberty CLOUDY    43  22  43 NE6       30.18S
Teterboro      CLEAR     45  18  34 NE5       30.18S
Caldwell       PTCLDY    42  21  43 CALM      30.19S
Somerville     CLOUDY    41  23  48 CALM      30.17S
Linden           N/A     45  20  36 CALM      30.19S
Sussex         CLOUDY    37  22  54 CALM      30.17S
Andover          N/A     37  22  54 CALM      30.17S
Trenton        CLOUDY    44  22  41 CALM      30.18S
Millville      CLOUDY    40  31  70 SW3       30.21S
Atlantic City  MOCLDY    43  29  57 CALM      30.20S
Wrightstown    NOT AVBL
Toms River     PTCLDY    39  32  76 CALM      30.20S
Belmar         CLOUDY    41  25  53 CALM      30.20S
$$

PAZ047>061-062-071-042300-
EASTERN PENNSYLVANIA

CITY           SKY/WX    TMP DP  RH WIND       PRES   REMARKS
Philadelphia   CLOUDY    47  24  40 VRB5      30.20S
Allentown      CLOUDY    41  24  51 N3        30.17S
Scranton       PTCLDY    38  24  57 CALM      30.15F
$$

CTZ002-004>006-009-010-012-RIZ004-006-007-MAZ004-011-015-042300-
SOUTHERN NEW ENGLAND
 IN CT

CITY           SKY/WX    TMP DP  RH WIND       PRES   REMARKS
Bradley INTL   PTCLDY    36  19  50 NW5       30.19R WCI  32
Hartford       CLEAR     38  20  48 NW6       30.20R WCI  33
Danbury        CLEAR     32  21  64 CALM      30.20S
Wtrbury/Oxford PTCLDY    34  18  51 NW5       30.19S WCI  30
Bridgeport     CLEAR     40  21  46 NW5       30.20S
Meriden        CLEAR     38  20  48 NW5       30.19S WCI  34
New Haven      PTCLDY    37  21  52 CALM      30.20S
Chester          N/A     36  19  51 CALM      30.18R
Groton         CLEAR     39  21  48 NW7       30.19R WCI  34
Wilimantic     CLEAR     38  21  50 NW3       30.19R

 IN RI

CITY           SKY/WX    TMP DP  RH WIND       PRES   REMARKS
Providence     PTCLDY    38  19  46 NW5       30.18S WCI  34
Block Island   CLEAR     38  22  52 NW3       30.19R
Westerly       CLEAR     36  19  50 CALM      30.19R
 IN MA

CITY           SKY/WX    TMP DP  RH WIND       PRES   REMARKS
Boston         PTCLDY    39  19  44 N8        30.18S WCI  33
Worcester      CLEAR     33  17  51 NW3       30.15R
Westfield      CLEAR     34  21  59 NW6       30.18R WCI  29
Provincetown   CLEAR     39  22  50 NW12      30.17S WCI  32
Nantucket      CLEAR     36  23  59 N8        30.17R WCI  30
$$

ANZ330-335-338-340-345-350-353-355-042300-
COASTAL MARINE OBSERVATIONS


STATION/POSITION TIME  SKY/WX   TEMP    WIND        PRES    VSBY  WAVE
                                AIR SEA DIR/SP/G                  HT/PER
                 (UTC)          (F)     (DEG/KT/KT) (MB)    (MI)  (FT/S)
NY HARB ENTRANCE 2150            45 53   40/  4/  6 1022.5          1/ 8
20 S FIRE ISLAND 2150            43 53  340/  8/ 10 1022.5          2/ 4
GREAT SOUTH BAY  2130            42 44                N/A
23 SSW MONTAUK P 2150            41 55  320/  8/ 14 1022.9          2/ 8
15 E BARNEGAT LI 2130               54                N/A           2/ 4
HUDSON CANYON    2050            43 58              1022.9          3/ 5
KINGS POINT      2124            43 48              1021.9
EXECUTION ROCKS  2145            44      30/  8/ 12   N/A
CENTRAL LI SOUND 2145            42 51  320/  8/ 12   N/A           1/ 3
EASTERN LI SOUND NOT AVBL
ROBBINS REEF     2124            45     360/  8/  9 1022.1
$$


>>>>>>>>>>>>>>>>>>>>>>>>>>>> KEY <<<<<<<<<<<<<<<<<<<<<<<<<<<
>                                                          <
>     SKY/WX - Sky Condition/Present Weather               <
>     TMP    - Temperature in Fahrenheit                   <
>     DP     - Dew Point in Fahrenheit                     <
>     RH     - Relative Humidity in Percent                <
>     WIND   - Direction (from) and Speed in MPH           <
>     PRES   - Mean Sea Level Pressure (inches of Hg)      <
>     WCI    - Wind Chill Index                            <
>     VSB    - VISIBILITY IN MILES                         <
>     HX     - HEAT INDEX                                  <
>     TC     - TEMPERATURE IN CELSIUS                      <
>     VRB    - VARIABLE WIND DIRECTION                     <
>                                                          <
>>>>>>>>>>>>>>>>>>>>>>>>>>>> KEY <<<<<<<<<<<<<<<<<<<<<<<<<<<




USA.gov is the U.S. government's official web portal to all federal, state and local government web resources and services.